Preview of NWS' New Version of Forecast
This preview is not operational and should not be used for support decisions.

Regional Weather Roundup (RWR)

Issued by National Weather Service (NWS)

                            
000
ASUS44 KMEG 211300
RWRTN 
TENNESSEE HOURLY STATE WEATHER ROUNDUP
NATIONAL WEATHER SERVICE MEMPHIS TN
700 AM CST THU FEB 21 2019

TNZ002-004-019-021-049-052-054-088>092-211400-
WEST TENNESSEE
  
CITY           SKY/WX    TMP DP  RH WIND       PRES   REMARKS
MEMPHIS INTL   FAIR      36  35  96 NE6       30.17R FOG     WCI  31  
NWS MEMPHIS      N/A     32 N/A N/A MISG        N/A                   
JACKSON        FOG       36  36 100 NE5       30.19R VSB 1/4 WCI  32  
DYERSBURG      FAIR      35  35 100 E3        30.21R                  
$$

TNZ008-025-027-028-033-062-065-066-211400-
NORTH MIDDLE TENNESSEE
  
CITY           SKY/WX    TMP DP  RH WIND       PRES   REMARKS
NASHVILLE      CLOUDY    44  39  82 N5        30.19R                  
CLARKSVILLE    FOG       37  35  92 CALM      30.18R VSB<1/4          
SMYRNA         MOCLDY    41  40  96 NW3       30.20R                  
CROSSVILLE     FOG       42  41  96 NE7       30.14R VSB 1/4          
$$

TNZ061-075-076-078-094-096-097-211400-
SOUTH MIDDLE TENNESSEE
  
CITY           SKY/WX    TMP DP  RH WIND       PRES   REMARKS
FAYETTEVILLE   CLOUDY    43  43 100 N9        30.12S FOG              
$$

TNZ017-018-042-046-047-211400-
NORTHEAST TENNESSEE
  
CITY           SKY/WX    TMP DP  RH WIND       PRES   REMARKS
TRI CITIES     FOG       47  47 100 CALM      30.11R VSB 1            
$$

TNZ012-013-036-069-073-074-211400-
CENTRAL EAST TENNESSEE
  
CITY           SKY/WX    TMP DP  RH WIND       PRES   REMARKS
KNOXVILLE      CLOUDY    50  49  96 S5        30.10R FOG              
OAK RIDGE      CLOUDY    52  52 100 CALM      30.12R                  
$$

TNZ083-085-099-211400-
SOUTHEAST TENNESSEE
  
CITY           SKY/WX    TMP DP  RH WIND       PRES   REMARKS
CHATTANOOGA    CLOUDY    48  46  93 SE5       30.13R FOG              
$$

SKY/WX REPORTED AS FAIR MEANS FEW OR NO CLOUDS BELOW
12 THOUSAND FEET.